owner,sensor,date,latitude,longitude,vertical_datum,wind_speed,wind_to_direction,wind_speed_of_gust,qcFlag 
DISL,ioos:station:DISL:MBLA:1,2008-11-01T00:00:00Z,30.4367,-88.0117,14.2,2.36,167.6,-9999.0,'1111122,1111122,1111122' 
DISL,ioos:station:DISL:MBLA:1,2008-11-01T00:30:00Z,30.4367,-88.0117,14.2,2.76,154.2,-9999.0,'1111122,1111122,1111122' 
DISL,ioos:station:DISL:MBLA:1,2008-11-01T01:00:00Z,30.4367,-88.0117,14.2,2.55,152.7,-9999.0,'1111122,1111122,1111122' 
DISL,ioos:station:DISL:MBLA:1,2008-11-01T01:30:00Z,30.4367,-88.0117,14.2,2.25,140.3,-9999.0,'1111122,1111122,1111122' 
DISL,ioos:station:DISL:MBLA:1,2008-11-01T02:00:00Z,30.4367,-88.0117,14.2,2.69,129.7,-9999.0,'1111122,1111122,1111122' 
DISL,ioos:station:DISL:MBLA:1,2008-11-01T02:30:00Z,30.4367,-88.0117,14.2,2.29,108.7,-9999.0,'1111122,1111122,1111122' 
DISL,ioos:station:DISL:MBLA:1,2008-11-01T03:00:00Z,30.4367,-88.0117,14.2,2.68,88.4,-9999.0,'1111122,1111122,1111122' 
DISL,ioos:station:DISL:MBLA:1,2008-11-01T03:30:00Z,30.4367,-88.0117,14.2,2.92,11.48,-9999.0,'1111122,1111122,1111122' 
DISL,ioos:station:DISL:MBLA:1,2008-11-01T04:00:00Z,30.4367,-88.0117,14.2,2.77,22.6,-9999.0,'1111122,1111122,1111122' 
DISL,ioos:station:DISL:MBLA:1,2008-11-01T04:30:00Z,30.4367,-88.0117,14.2,3.02,12.83,-9999.0,'1111122,1111122,1111122' 
DISL,ioos:station:DISL:MBLA:1,2008-11-01T05:00:00Z,30.4367,-88.0117,14.2,3.43,22.65,-9999.0,'1111122,1111122,1111122' 
DISL,ioos:station:DISL:MBLA:1,2008-11-01T05:30:00Z,30.4367,-88.0117,14.2,3.27,10.81,-9999.0,'1111122,1111122,1111122' 
DISL,ioos:station:DISL:MBLA:1,2008-11-01T06:00:00Z,30.4367,-88.0117,14.2,3.5,15.0,-9999.0,'1111122,1111122,1111122' 
DISL,ioos:station:DISL:MBLA:1,2008-11-01T06:30:00Z,30.4367,-88.0117,14.2,4.15,20.88,-9999.0,'1111122,1111122,1111122' 
DISL,ioos:station:DISL:MBLA:1,2008-11-01T07:00:00Z,30.4367,-88.0117,14.2,4.75,28.9,-9999.0,'1111122,1111122,1111122' 
DISL,ioos:station:DISL:MBLA:1,2008-11-01T07:30:00Z,30.4367,-88.0117,14.2,5.04,25.0,-9999.0,'1111122,1111122,1111122' 
DISL,ioos:station:DISL:MBLA:1,2008-11-01T08:00:00Z,30.4367,-88.0117,14.2,4.42,23.51,-9999.0,'1111122,1111122,1111122' 
DISL,ioos:station:DISL:MBLA:1,2008-11-01T08:30:00Z,30.4367,-88.0117,14.2,4.82,50.49,-9999.0,'1111122,1111122,1111122' 
DISL,ioos:station:DISL:MBLA:1,2008-11-01T09:00:00Z,30.4367,-88.0117,14.2,3.94,40.03,-9999.0,'1111122,1111122,1111122' 
DISL,ioos:station:DISL:MBLA:1,2008-11-01T09:30:00Z,30.4367,-88.0117,14.2,6.52,71.7,-9999.0,'1111122,1111122,1111122' 
DISL,ioos:station:DISL:MBLA:1,2008-11-01T10:00:00Z,30.4367,-88.0117,14.2,5.9,70.4,-9999.0,'1111122,1111122,1111122' 
DISL,ioos:station:DISL:MBLA:1,2008-11-01T10:30:00Z,30.4367,-88.0117,14.2,6.36,73.7,-9999.0,'1111122,1111122,1111122' 
DISL,ioos:station:DISL:MBLA:1,2008-11-01T11:00:00Z,30.4367,-88.0117,14.2,6.79,81.0,-9999.0,'1111122,1111122,1111122' 
DISL,ioos:station:DISL:MBLA:1,2008-11-01T11:30:00Z,30.4367,-88.0117,14.2,4.23,12.0,-9999.0,'1111122,1111122,1111122' 
DISL,ioos:station:DISL:MBLA:1,2008-11-01T12:00:00Z,30.4367,-88.0117,14.2,3.89,45.88,-9999.0,'1111122,1111122,1111122' 
DISL,ioos:station:DISL:MBLA:1,2008-11-01T12:30:00Z,30.4367,-88.0117,14.2,4.53,10.43,-9999.0,'1111122,1111122,1111122' 
DISL,ioos:station:DISL:MBLA:1,2008-11-01T13:00:00Z,30.4367,-88.0117,14.2,4.61,39.0,-9999.0,'1111122,1111122,1111122' 
DISL,ioos:station:DISL:MBLA:1,2008-11-01T13:30:00Z,30.4367,-88.0117,14.2,4.76,43.52,-9999.0,'1111122,1111122,1111122' 
DISL,ioos:station:DISL:MBLA:1,2008-11-01T14:00:00Z,30.4367,-88.0117,14.2,3.58,34.81,-9999.0,'1111122,1111122,1111122' 
DISL,ioos:station:DISL:MBLA:1,2008-11-01T14:30:00Z,30.4367,-88.0117,14.2,3.81,46.0,-9999.0,'1111122,1111122,1111122' 
DISL,ioos:station:DISL:MBLA:1,2008-11-01T15:00:00Z,30.4367,-88.0117,14.2,3.53,29.24,-9999.0,'1111122,1111122,1111122' 
DISL,ioos:station:DISL:MBLA:1,2008-11-01T15:30:00Z,30.4367,-88.0117,14.2,2.73,17.68,-9999.0,'1111122,1111122,1111122' 
DISL,ioos:station:DISL:MBLA:1,2008-11-01T16:00:00Z,30.4367,-88.0117,14.2,4.28,2.068,-9999.0,'1111122,1111122,1111122' 
DISL,ioos:station:DISL:MBLA:1,2008-11-01T16:30:00Z,30.4367,-88.0117,14.2,4.51,349.3,-9999.0,'1111122,1111122,1111122' 
DISL,ioos:station:DISL:MBLA:1,2008-11-01T17:00:00Z,30.4367,-88.0117,14.2,4.56,345.2,-9999.0,'1111122,1111122,1111122' 
DISL,ioos:station:DISL:MBLA:1,2008-11-01T17:30:00Z,30.4367,-88.0117,14.2,4.36,340.0,-9999.0,'1111122,1111122,1111122' 
DISL,ioos:station:DISL:MBLA:1,2008-11-01T18:00:00Z,30.4367,-88.0117,14.2,4.16,320.2,-9999.0,'1111122,1111122,1111122' 
DISL,ioos:station:DISL:MBLA:1,2008-11-01T18:30:00Z,30.4367,-88.0117,14.2,3.89,321.6,-9999.0,'1111122,1111122,1111122' 
DISL,ioos:station:DISL:MBLA:1,2008-11-01T19:00:00Z,30.4367,-88.0117,14.2,3.42,314.5,-9999.0,'1111122,1111122,1111122' 
DISL,ioos:station:DISL:MBLA:1,2008-11-01T19:30:00Z,30.4367,-88.0117,14.2,4.7,342.9,-9999.0,'1111122,1111122,1111122' 
DISL,ioos:station:DISL:MBLA:1,2008-11-01T20:00:00Z,30.4367,-88.0117,14.2,4.85,341.9,-9999.0,'1111122,1111122,1111122' 
DISL,ioos:station:DISL:MBLA:1,2008-11-01T20:30:00Z,30.4367,-88.0117,14.2,4.74,341.3,-9999.0,'1111122,1111122,1111122' 
DISL,ioos:station:DISL:MBLA:1,2008-11-01T21:00:00Z,30.4367,-88.0117,14.2,4.76,342.3,-9999.0,'1111122,1111122,1111122' 
DISL,ioos:station:DISL:MBLA:1,2008-11-01T21:30:00Z,30.4367,-88.0117,14.2,4.39,335.0,-9999.0,'1111122,1111122,1111122' 
DISL,ioos:station:DISL:MBLA:1,2008-11-01T22:00:00Z,30.4367,-88.0117,14.2,3.45,341.5,-9999.0,'1111122,1111122,1111122' 
DISL,ioos:station:DISL:MBLA:1,2008-11-01T22:30:00Z,30.4367,-88.0117,14.2,3.1,352.9,-9999.0,'1111122,1111122,1111122' 
DISL,ioos:station:DISL:MBLA:1,2008-11-01T23:00:00Z,30.4367,-88.0117,14.2,3.03,24.7,-9999.0,'1111122,1111122,1111122' 
DISL,ioos:station:DISL:MBLA:1,2008-11-01T23:30:00Z,30.4367,-88.0117,14.2,2.22,75.1,-9999.0,'1111122,1111122,1111122' 
DISL,ioos:station:DISL:MBLA:1,2008-11-02T00:00:00Z,30.4367,-88.0117,14.2,2.71,160.8,-9999.0,'1111122,1111122,1111122' 
DISL,ioos:station:DISL:MBLA:1,2008-11-02T00:30:00Z,30.4367,-88.0117,14.2,2.9,157.1,-9999.0,'1111122,1111122,1111122' 
DISL,ioos:station:DISL:MBLA:1,2008-11-02T01:00:00Z,30.4367,-88.0117,14.2,2.14,153.9,-9999.0,'1111122,1111122,1111122' 
DISL,ioos:station:DISL:MBLA:1,2008-11-02T01:30:00Z,30.4367,-88.0117,14.2,2.16,291.3,-9999.0,'1111122,1111122,1111122' 
DISL,ioos:station:DISL:MBLA:1,2008-11-02T02:00:00Z,30.4367,-88.0117,14.2,0.0,0.0,-9999.0,'1114422,1114422,1111122' 
DISL,ioos:station:DISL:MBLA:1,2008-11-02T02:30:00Z,30.4367,-88.0117,14.2,0.18,46.81,-9999.0,'1111122,1111122,1111122' 
DISL,ioos:station:DISL:MBLA:1,2008-11-02T03:00:00Z,30.4367,-88.0117,14.2,0.79,51.7,-9999.0,'1111122,1111122,1111122' 
DISL,ioos:station:DISL:MBLA:1,2008-11-02T03:30:00Z,30.4367,-88.0117,14.2,0.51,31.32,-9999.0,'1111122,1111122,1111122' 
DISL,ioos:station:DISL:MBLA:1,2008-11-02T04:00:00Z,30.4367,-88.0117,14.2,1.38,28.7,-9999.0,'1111122,1111122,1111122' 
DISL,ioos:station:DISL:MBLA:1,2008-11-02T04:30:00Z,30.4367,-88.0117,14.2,2.04,18.51,-9999.0,'1111122,1111122,1111122' 
DISL,ioos:station:DISL:MBLA:1,2008-11-02T05:00:00Z,30.4367,-88.0117,14.2,2.15,24.21,-9999.0,'1111122,1111122,1111122' 
DISL,ioos:station:DISL:MBLA:1,2008-11-02T05:30:00Z,30.4367,-88.0117,14.2,1.63,12.01,-9999.0,'1111122,1111122,1111122' 
DISL,ioos:station:DISL:MBLA:1,2008-11-02T06:00:00Z,30.4367,-88.0117,14.2,1.98,346.3,-9999.0,'1111122,1111122,1111122' 
DISL,ioos:station:DISL:MBLA:1,2008-11-02T06:30:00Z,30.4367,-88.0117,14.2,3.02,347.4,-9999.0,'1111122,1111122,1111122' 
DISL,ioos:station:DISL:MBLA:1,2008-11-02T07:00:00Z,30.4367,-88.0117,14.2,3.38,17.56,-9999.0,'1111122,1111122,1111122' 
DISL,ioos:station:DISL:MBLA:1,2008-11-02T07:30:00Z,30.4367,-88.0117,14.2,3.72,16.02,-9999.0,'1111122,1111122,1111122' 
DISL,ioos:station:DISL:MBLA:1,2008-11-02T08:00:00Z,30.4367,-88.0117,14.2,3.84,335.2,-9999.0,'1111122,1111122,1111122' 
DISL,ioos:station:DISL:MBLA:1,2008-11-02T08:30:00Z,30.4367,-88.0117,14.2,4.19,351.6,-9999.0,'1111122,1111122,1111122' 
DISL,ioos:station:DISL:MBLA:1,2008-11-02T09:00:00Z,30.4367,-88.0117,14.2,4.69,12.17,-9999.0,'1111122,1111122,1111122' 
DISL,ioos:station:DISL:MBLA:1,2008-11-02T09:30:00Z,30.4367,-88.0117,14.2,5.71,7.78,-9999.0,'1111122,1111122,1111122' 
DISL,ioos:station:DISL:MBLA:1,2008-11-02T10:00:00Z,30.4367,-88.0117,14.2,6.4,21.4,-9999.0,'1111122,1111122,1111122' 
DISL,ioos:station:DISL:MBLA:1,2008-11-02T10:30:00Z,30.4367,-88.0117,14.2,5.14,21.53,-9999.0,'1111122,1111122,1111122' 
DISL,ioos:station:DISL:MBLA:1,2008-11-02T11:00:00Z,30.4367,-88.0117,14.2,4.92,28.56,-9999.0,'1111122,1111122,1111122' 
DISL,ioos:station:DISL:MBLA:1,2008-11-02T11:30:00Z,30.4367,-88.0117,14.2,4.87,24.83,-9999.0,'1111122,1111122,1111122' 
DISL,ioos:station:DISL:MBLA:1,2008-11-02T12:00:00Z,30.4367,-88.0117,14.2,5.91,19.81,-9999.0,'1111122,1111122,1111122' 
DISL,ioos:station:DISL:MBLA:1,2008-11-02T12:30:00Z,30.4367,-88.0117,14.2,5.17,21.26,-9999.0,'1111122,1111122,1111122' 
DISL,ioos:station:DISL:MBLA:1,2008-11-02T13:00:00Z,30.4367,-88.0117,14.2,5.53,20.78,-9999.0,'1111122,1111122,1111122' 
DISL,ioos:station:DISL:MBLA:1,2008-11-02T13:30:00Z,30.4367,-88.0117,14.2,5.57,23.18,-9999.0,'1111122,1111122,1111122' 
DISL,ioos:station:DISL:MBLA:1,2008-11-02T14:00:00Z,30.4367,-88.0117,14.2,6.46,11.32,-9999.0,'1111122,1111122,1111122' 
DISL,ioos:station:DISL:MBLA:1,2008-11-02T14:30:00Z,30.4367,-88.0117,14.2,5.78,351.7,-9999.0,'1111122,1111122,1111122' 
DISL,ioos:station:DISL:MBLA:1,2008-11-02T15:00:00Z,30.4367,-88.0117,14.2,5.41,359.8,-9999.0,'1111122,1111122,1111122' 
DISL,ioos:station:DISL:MBLA:1,2008-11-02T15:30:00Z,30.4367,-88.0117,14.2,5.4,355.6,-9999.0,'1111122,1111122,1111122' 
DISL,ioos:station:DISL:MBLA:1,2008-11-02T16:00:00Z,30.4367,-88.0117,14.2,4.92,357.5,-9999.0,'1111122,1111122,1111122' 
DISL,ioos:station:DISL:MBLA:1,2008-11-02T16:30:00Z,30.4367,-88.0117,14.2,4.72,358.4,-9999.0,'1111122,1111122,1111122' 
DISL,ioos:station:DISL:MBLA:1,2008-11-02T17:00:00Z,30.4367,-88.0117,14.2,4.56,339.6,-9999.0,'1111122,1111122,1111122' 
DISL,ioos:station:DISL:MBLA:1,2008-11-02T17:30:00Z,30.4367,-88.0117,14.2,3.83,337.7,-9999.0,'1111122,1111122,1111122' 
DISL,ioos:station:DISL:MBLA:1,2008-11-02T18:00:00Z,30.4367,-88.0117,14.2,4.21,321.2,-9999.0,'1111122,1111122,1111122' 
DISL,ioos:station:DISL:MBLA:1,2008-11-02T18:30:00Z,30.4367,-88.0117,14.2,3.6,314.8,-9999.0,'1111122,1111122,1111122' 
DISL,ioos:station:DISL:MBLA:1,2008-11-02T19:00:00Z,30.4367,-88.0117,14.2,3.62,310.2,-9999.0,'1111122,1111122,1111122' 
DISL,ioos:station:DISL:MBLA:1,2008-11-02T19:30:00Z,30.4367,-88.0117,14.2,3.75,309.5,-9999.0,'1111122,1111122,1111122' 
DISL,ioos:station:DISL:MBLA:1,2008-11-02T20:00:00Z,30.4367,-88.0117,14.2,2.58,285.4,-9999.0,'1111122,1111122,1111122' 
DISL,ioos:station:DISL:MBLA:1,2008-11-02T20:30:00Z,30.4367,-88.0117,14.2,2.99,301.9,-9999.0,'1111122,1111122,1111122' 
DISL,ioos:station:DISL:MBLA:1,2008-11-02T21:00:00Z,30.4367,-88.0117,14.2,2.67,276.0,-9999.0,'1111122,1111122,1111122' 
DISL,ioos:station:DISL:MBLA:1,2008-11-02T21:30:00Z,30.4367,-88.0117,14.2,2.08,277.3,-9999.0,'1111122,1111122,1111122' 
DISL,ioos:station:DISL:MBLA:1,2008-11-02T22:00:00Z,30.4367,-88.0117,14.2,3.09,204.7,-9999.0,'1111122,1111122,1111122' 
DISL,ioos:station:DISL:MBLA:1,2008-11-02T22:30:00Z,30.4367,-88.0117,14.2,4.19,192.4,-9999.0,'1111122,1111122,1111122' 
DISL,ioos:station:DISL:MBLA:1,2008-11-02T23:00:00Z,30.4367,-88.0117,14.2,3.67,212.1,-9999.0,'1111122,1111122,1111122' 
DISL,ioos:station:DISL:MBLA:1,2008-11-02T23:30:00Z,30.4367,-88.0117,14.2,1.85,247.6,-9999.0,'1111122,1111122,1111122' 
DISL,ioos:station:DISL:MBLA:1,2008-11-03T00:00:00Z,30.4367,-88.0117,14.2,3.55,256.7,-9999.0,'1111122,1111122,1111122' 
DISL,ioos:station:DISL:MBLA:1,2008-11-03T00:30:00Z,30.4367,-88.0117,14.2,3.49,270.9,-9999.0,'1111122,1111122,1111122' 
DISL,ioos:station:DISL:MBLA:1,2008-11-03T01:00:00Z,30.4367,-88.0117,14.2,2.26,286.0,-9999.0,'1111122,1111122,1111122' 
DISL,ioos:station:DISL:MBLA:1,2008-11-03T01:30:00Z,30.4367,-88.0117,14.2,2.76,287.2,-9999.0,'1111122,1111122,1111122' 
DISL,ioos:station:DISL:MBLA:1,2008-11-03T02:00:00Z,30.4367,-88.0117,14.2,1.15,266.1,-9999.0,'1111122,1111122,1111122' 
DISL,ioos:station:DISL:MBLA:1,2008-11-03T02:30:00Z,30.4367,-88.0117,14.2,2.17,297.8,-9999.0,'1111122,1111122,1111122' 
DISL,ioos:station:DISL:MBLA:1,2008-11-03T03:00:00Z,30.4367,-88.0117,14.2,0.77,359.7,-9999.0,'1111122,1111122,1111122' 
DISL,ioos:station:DISL:MBLA:1,2008-11-03T03:30:00Z,30.4367,-88.0117,14.2,1.64,347.9,-9999.0,'1111122,1111122,1111122' 
DISL,ioos:station:DISL:MBLA:1,2008-11-03T04:00:00Z,30.4367,-88.0117,14.2,2.33,8.87,-9999.0,'1111122,1111122,1111122' 
DISL,ioos:station:DISL:MBLA:1,2008-11-03T04:30:00Z,30.4367,-88.0117,14.2,2.9,17.62,-9999.0,'1111122,1111122,1111122' 
DISL,ioos:station:DISL:MBLA:1,2008-11-03T05:00:00Z,30.4367,-88.0117,14.2,4.34,29.2,-9999.0,'1111122,1111122,1111122' 
DISL,ioos:station:DISL:MBLA:1,2008-11-03T05:30:00Z,30.4367,-88.0117,14.2,6.87,50.08,-9999.0,'1111122,1111122,1111122' 
DISL,ioos:station:DISL:MBLA:1,2008-11-03T06:00:00Z,30.4367,-88.0117,14.2,7.31,69.63,-9999.0,'1111122,1111122,1111122' 
DISL,ioos:station:DISL:MBLA:1,2008-11-03T06:30:00Z,30.4367,-88.0117,14.2,8.3,71.3,-9999.0,'1111122,1111122,1111122' 
DISL,ioos:station:DISL:MBLA:1,2008-11-03T07:00:00Z,30.4367,-88.0117,14.2,7.09,67.65,-9999.0,'1111122,1111122,1111122' 
DISL,ioos:station:DISL:MBLA:1,2008-11-03T07:30:00Z,30.4367,-88.0117,14.2,6.5,67.65,-9999.0,'1111122,1111122,1111122' 
DISL,ioos:station:DISL:MBLA:1,2008-11-03T08:00:00Z,30.4367,-88.0117,14.2,6.72,68.62,-9999.0,'1111122,1111122,1111122' 
DISL,ioos:station:DISL:MBLA:1,2008-11-03T08:30:00Z,30.4367,-88.0117,14.2,7.24,73.1,-9999.0,'1111122,1111122,1111122' 
DISL,ioos:station:DISL:MBLA:1,2008-11-03T09:00:00Z,30.4367,-88.0117,14.2,8.6,72.8,-9999.0,'1111122,1111122,1111122' 
DISL,ioos:station:DISL:MBLA:1,2008-11-03T09:30:00Z,30.4367,-88.0117,14.2,8.32,72.2,-9999.0,'1111122,1111122,1111122' 
DISL,ioos:station:DISL:MBLA:1,2008-11-03T10:00:00Z,30.4367,-88.0117,14.2,8.34,68.88,-9999.0,'1111122,1111122,1111122' 
DISL,ioos:station:DISL:MBLA:1,2008-11-03T10:30:00Z,30.4367,-88.0117,14.2,8.21,65.24,-9999.0,'1111122,1111122,1111122' 
DISL,ioos:station:DISL:MBLA:1,2008-11-03T11:00:00Z,30.4367,-88.0117,14.2,7.63,58.26,-9999.0,'1111122,1111122,1111122' 
DISL,ioos:station:DISL:MBLA:1,2008-11-03T11:30:00Z,30.4367,-88.0117,14.2,6.02,37.13,-9999.0,'1111122,1111122,1111122' 
DISL,ioos:station:DISL:MBLA:1,2008-11-03T12:00:00Z,30.4367,-88.0117,14.2,5.13,26.87,-9999.0,'1111122,1111122,1111122' 
DISL,ioos:station:DISL:MBLA:1,2008-11-03T12:30:00Z,30.4367,-88.0117,14.2,5.95,47.95,-9999.0,'1111122,1111122,1111122' 
DISL,ioos:station:DISL:MBLA:1,2008-11-03T13:00:00Z,30.4367,-88.0117,14.2,6.54,50.42,-9999.0,'1111122,1111122,1111122' 
DISL,ioos:station:DISL:MBLA:1,2008-11-03T13:30:00Z,30.4367,-88.0117,14.2,6.9,41.59,-9999.0,'1111122,1111122,1111122' 
DISL,ioos:station:DISL:MBLA:1,2008-11-03T14:00:00Z,30.4367,-88.0117,14.2,4.61,25.79,-9999.0,'1111122,1111122,1111122' 
DISL,ioos:station:DISL:MBLA:1,2008-11-03T14:30:00Z,30.4367,-88.0117,14.2,3.89,18.28,-9999.0,'1111122,1111122,1111122' 
DISL,ioos:station:DISL:MBLA:1,2008-11-03T15:00:00Z,30.4367,-88.0117,14.2,4.61,7.3,-9999.0,'1111122,1111122,1111122' 
DISL,ioos:station:DISL:MBLA:1,2008-11-03T15:30:00Z,30.4367,-88.0117,14.2,5.47,344.8,-9999.0,'1111122,1111122,1111122' 
DISL,ioos:station:DISL:MBLA:1,2008-11-03T16:00:00Z,30.4367,-88.0117,14.2,5.93,343.9,-9999.0,'1111122,1111122,1111122' 
DISL,ioos:station:DISL:MBLA:1,2008-11-03T16:30:00Z,30.4367,-88.0117,14.2,6.38,353.0,-9999.0,'1111122,1111122,1111122' 
DISL,ioos:station:DISL:MBLA:1,2008-11-03T17:00:00Z,30.4367,-88.0117,14.2,6.42,346.2,-9999.0,'1111122,1111122,1111122' 
DISL,ioos:station:DISL:MBLA:1,2008-11-03T17:30:00Z,30.4367,-88.0117,14.2,5.47,341.1,-9999.0,'1111122,1111122,1111122' 
DISL,ioos:station:DISL:MBLA:1,2008-11-03T18:00:00Z,30.4367,-88.0117,14.2,5.01,309.4,-9999.0,'1111122,1111122,1111122' 
DISL,ioos:station:DISL:MBLA:1,2008-11-03T18:30:00Z,30.4367,-88.0117,14.2,5.74,323.4,-9999.0,'1111122,1111122,1111122' 
DISL,ioos:station:DISL:MBLA:1,2008-11-03T19:00:00Z,30.4367,-88.0117,14.2,4.23,320.3,-9999.0,'1111122,1111122,1111122' 
DISL,ioos:station:DISL:MBLA:1,2008-11-03T19:30:00Z,30.4367,-88.0117,14.2,4.24,321.2,-9999.0,'1111122,1111122,1111122' 
DISL,ioos:station:DISL:MBLA:1,2008-11-03T20:00:00Z,30.4367,-88.0117,14.2,3.57,317.8,-9999.0,'1111122,1111122,1111122' 
DISL,ioos:station:DISL:MBLA:1,2008-11-03T20:30:00Z,30.4367,-88.0117,14.2,3.41,327.8,-9999.0,'1111122,1111122,1111122' 
DISL,ioos:station:DISL:MBLA:1,2008-11-03T21:00:00Z,30.4367,-88.0117,14.2,4.75,344.7,-9999.0,'1111122,1111122,1111122' 
DISL,ioos:station:DISL:MBLA:1,2008-11-03T21:30:00Z,30.4367,-88.0117,14.2,4.43,343.9,-9999.0,'1111122,1111122,1111122' 
DISL,ioos:station:DISL:MBLA:1,2008-11-03T22:00:00Z,30.4367,-88.0117,14.2,4.67,346.4,-9999.0,'1111122,1111122,1111122' 
DISL,ioos:station:DISL:MBLA:1,2008-11-03T22:30:00Z,30.4367,-88.0117,14.2,4.61,351.2,-9999.0,'1111122,1111122,1111122' 
DISL,ioos:station:DISL:MBLA:1,2008-11-03T23:00:00Z,30.4367,-88.0117,14.2,4.35,9.82,-9999.0,'1111122,1111122,1111122' 
DISL,ioos:station:DISL:MBLA:1,2008-11-03T23:30:00Z,30.4367,-88.0117,14.2,5.19,22.88,-9999.0,'1111122,1111122,1111122' 
DISL,ioos:station:DISL:MBLA:1,2008-11-04T00:00:00Z,30.4367,-88.0117,14.2,4.65,34.57,-9999.0,'1111122,1111122,1111122' 
DISL,ioos:station:DISL:MBLA:1,2008-11-04T00:30:00Z,30.4367,-88.0117,14.2,2.92,46.5,-9999.0,'1111122,1111122,1111122' 
DISL,ioos:station:DISL:MBLA:1,2008-11-04T01:00:00Z,30.4367,-88.0117,14.2,1.73,65.34,-9999.0,'1111122,1111122,1111122' 
DISL,ioos:station:DISL:MBLA:1,2008-11-04T01:30:00Z,30.4367,-88.0117,14.2,1.84,17.18,-9999.0,'1111122,1111122,1111122' 
DISL,ioos:station:DISL:MBLA:1,2008-11-04T02:00:00Z,30.4367,-88.0117,14.2,3.07,17.38,-9999.0,'1111122,1111122,1111122' 
DISL,ioos:station:DISL:MBLA:1,2008-11-04T02:30:00Z,30.4367,-88.0117,14.2,3.58,33.9,-9999.0,'1111122,1111122,1111122' 
DISL,ioos:station:DISL:MBLA:1,2008-11-04T03:00:00Z,30.4367,-88.0117,14.2,5.2,44.64,-9999.0,'1111122,1111122,1111122' 
DISL,ioos:station:DISL:MBLA:1,2008-11-04T03:30:00Z,30.4367,-88.0117,14.2,5.94,45.35,-9999.0,'1111122,1111122,1111122' 
DISL,ioos:station:DISL:MBLA:1,2008-11-04T04:00:00Z,30.4367,-88.0117,14.2,5.46,47.27,-9999.0,'1111122,1111122,1111122' 
DISL,ioos:station:DISL:MBLA:1,2008-11-04T04:30:00Z,30.4367,-88.0117,14.2,4.25,41.85,-9999.0,'1111122,1111122,1111122' 
DISL,ioos:station:DISL:MBLA:1,2008-11-04T05:00:00Z,30.4367,-88.0117,14.2,5.06,37.06,-9999.0,'1111122,1111122,1111122' 
DISL,ioos:station:DISL:MBLA:1,2008-11-04T05:30:00Z,30.4367,-88.0117,14.2,4.69,34.74,-9999.0,'1111122,1111122,1111122' 
DISL,ioos:station:DISL:MBLA:1,2008-11-04T06:00:00Z,30.4367,-88.0117,14.2,4.82,41.89,-9999.0,'1111122,1111122,1111122' 
DISL,ioos:station:DISL:MBLA:1,2008-11-04T06:30:00Z,30.4367,-88.0117,14.2,5.9,55.44,-9999.0,'1111122,1111122,1111122' 
DISL,ioos:station:DISL:MBLA:1,2008-11-04T07:00:00Z,30.4367,-88.0117,14.2,7.75,61.28,-9999.0,'1111122,1111122,1111122' 
DISL,ioos:station:DISL:MBLA:1,2008-11-04T07:30:00Z,30.4367,-88.0117,14.2,8.03,63.7,-9999.0,'1111122,1111122,1111122' 
DISL,ioos:station:DISL:MBLA:1,2008-11-04T08:00:00Z,30.4367,-88.0117,14.2,8.5,70.6,-9999.0,'1111122,1111122,1111122' 
DISL,ioos:station:DISL:MBLA:1,2008-11-04T08:30:00Z,30.4367,-88.0117,14.2,7.93,78.2,-9999.0,'1111122,1111122,1111122' 
DISL,ioos:station:DISL:MBLA:1,2008-11-04T09:00:00Z,30.4367,-88.0117,14.2,8.12,69.5,-9999.0,'1111122,1111122,1111122' 
DISL,ioos:station:DISL:MBLA:1,2008-11-04T09:30:00Z,30.4367,-88.0117,14.2,8.7,61.96,-9999.0,'1111122,1111122,1111122' 
DISL,ioos:station:DISL:MBLA:1,2008-11-04T10:00:00Z,30.4367,-88.0117,14.2,7.54,55.9,-9999.0,'1111122,1111122,1111122' 
DISL,ioos:station:DISL:MBLA:1,2008-11-04T10:30:00Z,30.4367,-88.0117,14.2,7.81,65.03,-9999.0,'1111122,1111122,1111122' 
DISL,ioos:station:DISL:MBLA:1,2008-11-04T11:00:00Z,30.4367,-88.0117,14.2,9.95,69.37,-9999.0,'1111122,1111122,1111122' 
DISL,ioos:station:DISL:MBLA:1,2008-11-04T11:30:00Z,30.4367,-88.0117,14.2,9.01,66.71,-9999.0,'1111122,1111122,1111122' 
DISL,ioos:station:DISL:MBLA:1,2008-11-04T12:00:00Z,30.4367,-88.0117,14.2,7.54,68.9,-9999.0,'1111122,1111122,1111122' 
DISL,ioos:station:DISL:MBLA:1,2008-11-04T12:30:00Z,30.4367,-88.0117,14.2,3.97,65.37,-9999.0,'1111122,1111122,1111122' 
DISL,ioos:station:DISL:MBLA:1,2008-11-04T13:00:00Z,30.4367,-88.0117,14.2,3.07,32.31,-9999.0,'1111122,1111122,1111122' 
DISL,ioos:station:DISL:MBLA:1,2008-11-04T13:30:00Z,30.4367,-88.0117,14.2,5.17,65.65,-9999.0,'1111122,1111122,1111122' 
DISL,ioos:station:DISL:MBLA:1,2008-11-04T14:00:00Z,30.4367,-88.0117,14.2,4.36,58.4,-9999.0,'1111122,1111122,1111122' 
DISL,ioos:station:DISL:MBLA:1,2008-11-04T14:30:00Z,30.4367,-88.0117,14.2,4.42,60.7,-9999.0,'1111122,1111122,1111122' 
DISL,ioos:station:DISL:MBLA:1,2008-11-04T15:00:00Z,30.4367,-88.0117,14.2,3.8,56.61,-9999.0,'1111122,1111122,1111122' 
DISL,ioos:station:DISL:MBLA:1,2008-11-04T15:30:00Z,30.4367,-88.0117,14.2,4.12,51.09,-9999.0,'1111122,1111122,1111122' 
DISL,ioos:station:DISL:MBLA:1,2008-11-04T16:00:00Z,30.4367,-88.0117,14.2,4.95,35.19,-9999.0,'1111122,1111122,1111122' 
DISL,ioos:station:DISL:MBLA:1,2008-11-04T16:30:00Z,30.4367,-88.0117,14.2,4.75,37.08,-9999.0,'1111122,1111122,1111122' 
DISL,ioos:station:DISL:MBLA:1,2008-11-04T17:00:00Z,30.4367,-88.0117,14.2,5.24,27.1,-9999.0,'1111122,1111122,1111122' 
DISL,ioos:station:DISL:MBLA:1,2008-11-04T17:30:00Z,30.4367,-88.0117,14.2,5.14,19.75,-9999.0,'1111122,1111122,1111122' 
DISL,ioos:station:DISL:MBLA:1,2008-11-04T18:00:00Z,30.4367,-88.0117,14.2,5.11,17.82,-9999.0,'1111122,1111122,1111122' 
DISL,ioos:station:DISL:MBLA:1,2008-11-04T18:30:00Z,30.4367,-88.0117,14.2,5.09,7.26,-9999.0,'1111122,1111122,1111122' 
DISL,ioos:station:DISL:MBLA:1,2008-11-04T19:00:00Z,30.4367,-88.0117,14.2,6.09,12.64,-9999.0,'1111122,1111122,1111122' 
DISL,ioos:station:DISL:MBLA:1,2008-11-04T19:30:00Z,30.4367,-88.0117,14.2,6.53,5.953,-9999.0,'1111122,1111122,1111122' 
DISL,ioos:station:DISL:MBLA:1,2008-11-04T20:00:00Z,30.4367,-88.0117,14.2,5.42,7.38,-9999.0,'1111122,1111122,1111122' 
DISL,ioos:station:DISL:MBLA:1,2008-11-04T20:30:00Z,30.4367,-88.0117,14.2,4.74,12.35,-9999.0,'1111122,1111122,1111122' 
DISL,ioos:station:DISL:MBLA:1,2008-11-04T21:00:00Z,30.4367,-88.0117,14.2,5.98,359.6,-9999.0,'1111122,1111122,1111122' 
DISL,ioos:station:DISL:MBLA:1,2008-11-04T21:30:00Z,30.4367,-88.0117,14.2,5.18,9.15,-9999.0,'1111122,1111122,1111122' 
DISL,ioos:station:DISL:MBLA:1,2008-11-04T22:00:00Z,30.4367,-88.0117,14.2,5.66,350.0,-9999.0,'1111122,1111122,1111122' 
DISL,ioos:station:DISL:MBLA:1,2008-11-04T22:30:00Z,30.4367,-88.0117,14.2,5.05,343.2,-9999.0,'1111122,1111122,1111122' 
DISL,ioos:station:DISL:MBLA:1,2008-11-04T23:00:00Z,30.4367,-88.0117,14.2,4.71,340.4,-9999.0,'1111122,1111122,1111122' 
DISL,ioos:station:DISL:MBLA:1,2008-11-04T23:30:00Z,30.4367,-88.0117,14.2,5.28,332.9,-9999.0,'1111122,1111122,1111122' 
DISL,ioos:station:DISL:MBLA:1,2008-11-05T00:00:00Z,30.4367,-88.0117,14.2,5.26,320.9,-9999.0,'1111122,1111122,1111122' 
DISL,ioos:station:DISL:MBLA:1,2008-11-05T00:30:00Z,30.4367,-88.0117,14.2,5.18,327.7,-9999.0,'1111122,1111122,1111122' 
DISL,ioos:station:DISL:MBLA:1,2008-11-05T01:00:00Z,30.4367,-88.0117,14.2,5.37,324.5,-9999.0,'1111122,1111122,1111122' 
DISL,ioos:station:DISL:MBLA:1,2008-11-05T01:30:00Z,30.4367,-88.0117,14.2,6.15,341.7,-9999.0,'1111122,1111122,1111122' 
DISL,ioos:station:DISL:MBLA:1,2008-11-05T02:00:00Z,30.4367,-88.0117,14.2,5.22,344.6,-9999.0,'1111122,1111122,1111122' 
DISL,ioos:station:DISL:MBLA:1,2008-11-05T02:30:00Z,30.4367,-88.0117,14.2,5.49,1.85,-9999.0,'1111122,1111122,1111122' 
DISL,ioos:station:DISL:MBLA:1,2008-11-05T03:00:00Z,30.4367,-88.0117,14.2,4.49,357.2,-9999.0,'1111122,1111122,1111122' 
DISL,ioos:station:DISL:MBLA:1,2008-11-05T03:30:00Z,30.4367,-88.0117,14.2,4.41,349.9,-9999.0,'1111122,1111122,1111122' 
DISL,ioos:station:DISL:MBLA:1,2008-11-05T04:00:00Z,30.4367,-88.0117,14.2,3.52,335.3,-9999.0,'1111122,1111122,1111122' 